Regional Weather Roundup
Issued by NWS Northern Indiana

Home | Current Version | Previous Version | Graphics & Text | Print | Product List | Glossary On
Versions: 1 2 3 4 5 6 7 8 9 10 11 12 13 14 15 16 17 18 19 20 21 22 23 24 25 26 27 28 29 30 31 32 33 34 35 36 37 38 39 40 41 42 43 44 45 46 47 48 49 50
000
ASUS43 KIWX 241110
RWRIWX

KIWX WEATHER ROUNDUP
NATIONAL WEATHER SERVICE NORTHERN INDIANA
700 AM EDT THU JUL 24 2014

NOTE: "FAIR" INDICATES FEW OR NO CLOUDS BELOW 12,000 FEET WITH NO
SIGNIFICANT WEATHER AND/OR OBSTRUCTIONS TO VISIBILITY.

* THESE STATIONS ARE NOT UNDER NWS QUALITY CONTROL. THEY ALSO MAY NOT
  REPORT WEATHER SUCH AS PRECIPITATION OR FOG.

INZ001>027-241200-
NORTHERN INDIANA

CITY           SKY/WX    TMP DP  RH WIND       PRES   REMARKS
GARY*          PTCLDY    64  55  72 MISG      30.14R
VALPARAISO     CLEAR     55  51  86 VRB3      30.14R
MICHIGAN CITY* PTCLDY    52  52 100 CALM      30.14R FOG
LAPORTE*       PTCLDY    56  53  89 N8        30.14R
KNOX*          CLEAR     51  50  93 N3        30.12R
SOUTH BEND     PTCLDY    57  53  86 N6        30.14R
ELKHART*       PTCLDY    57  55  94 CALM      30.14
GOSHEN         MOCLDY    59  56  89 NE7       30.12R
MONTICELLO*    MOCLDY    56  55  96 CALM      30.10R
LOGANSPORT*    CLOUDY    55  54  94 N6        30.11R
ROCHESTER*     CLOUDY    59  55  88 N3        30.11S
WARSAW*        MOCLDY    54  54 100 N3        30.12R
ANGOLA*        CLOUDY    61  52  72 N3        30.12R
FORT WAYNE     MOCLDY    62  54  74 NE9       30.11R
HUNTINGTON*    MOCLDY    59  58  95 CALM      30.10R
PERU/GRISSOM   PTCLDY    56  56 100 N5        30.10R
MARION*        PTCLDY    57  56  97 NE5       30.10R FOG

$$
INZ028>050-241200-
CENTRAL INDIANA

CITY           SKY/WX    TMP DP  RH WIND       PRES   REMARKS
LAFAYETTE      MOCLDY    56  54  93 NE5       30.10R
KOKOMO*        CLEAR     55  54  94 NE5       30.10R
MUNCIE*        MOCLDY    59  57  93 NE5       30.09R FOG
INDIANAPOLIS   PTCLDY    58  56  93 N8        30.06R

$$
MIZ043>046-050>051-056>058-064>065-071>073-077>080-241200-
SOUTHWEST LOWER MICHIGAN

CITY           SKY/WX    TMP DP  RH WIND       PRES   REMARKS
BATTLE CREEK   MOCLDY    58  53  84 N7        30.14R
BENTON HARBOR  PTCLDY    55  52  89 CALM      30.14R
COLDWATER*     CLOUDY    59  56  90 NE7       30.13R
HILLSDALE*     CLOUDY    57  53  86 N5        30.12R
HOLLAND        CLEAR     57  51  80 NE3       30.16R
GRAND RAPIDS   PTCLDY    55  51  86 N3        30.15R
KALAMAZOO      PTCLDY    58  54  86 N6        30.15R
STURGIS*       CLOUDY    57  55  94 N7        30.12R
THREE RIVERS*  FAIR      58  57  95 CALM      30.14R

$$
OHZ001>008-015>018-024>025-241200-
NORTHWEST OHIO

CITY           SKY/WX    TMP DP  RH WIND       PRES   REMARKS
WAUSEON*       FAIR      55  52  88 N7        30.10S
DEFIANCE       CLEAR     57  52  83 N6        30.10S
FINDLAY        CLEAR     56  53  90 N7        30.08R
TOLEDO EXPRESS CLEAR     55  50  83 N5        30.09R
TOLEDO METCALF CLEAR     56  50  80 N6        30.09R
LIMA           PTCLDY    57  55  93 N8        30.08R FOG

$$
&&



USA.gov is the U.S. government's official web portal to all federal, state and local government web resources and services.